| time (UTC) | temp F | wind direction | speed MPH | gust MPH | rain 1hr in | rain 24hr in | rain mn in | humidity % | barometer mb |
| 20260831232056 | 91 | 0 | 0.0 | 3.0 | 0.00 | 0.00 | 0.00 | 52 | 1019.6 |
| 20260831231610 | 91 | 0 | 1.0 | 3.0 | 0.00 | 0.00 | 0.00 | 51 | 1019.5 |
| 20260831231053 | 91 | 81 | 1.0 | 3.0 | 0.00 | 0.00 | 0.00 | 49 | 1019.4 |
| 20260831230556 | 91 | 52 | 0.0 | 3.0 | 0.00 | 0.00 | 0.00 | 49 | 1019.5 |
| 20260831230117 | 91 | 78 | 1.0 | 3.0 | 0.00 | 0.00 | 0.00 | 48 | 1019.6 |
| 20260831225556 | 91 | 0 | 0.0 | 4.0 | 0.00 | 0.00 | 0.00 | 49 | 1019.6 |
| 20260831225053 | 91 | 0 | 2.0 | 4.0 | 0.00 | 0.00 | 0.00 | 48 | 1019.5 |
| 20260831224602 | 92 | 90 | 0.0 | 4.0 | 0.00 | 0.00 | 0.00 | 48 | 1019.6 |
| 20260831224057 | 92 | 75 | 0.0 | 4.0 | 0.00 | 0.00 | 0.00 | 49 | 1019.6 |
| 20260831223556 | 92 | 0 | 0.0 | 0.0 | 0.00 | 0.00 | 0.00 | 50 | 1019.6 |
| 20260831223114 | 93 | 0 | 0.0 | 2.0 | 0.00 | 0.00 | 0.00 | 52 | 1019.5 |
| 20260831222553 | 93 | 0 | 0.0 | 2.0 | 0.00 | 0.00 | 0.00 | 51 | 1019.6 |
| 20260831222052 | 93 | 0 | 0.0 | 2.0 | 0.00 | 0.00 | 0.00 | 51 | 1019.7 |
| 20260831221608 | 94 | 0 | 1.0 | 2.0 | 0.00 | 0.00 | 0.00 | 52 | 1019.6 |
| 20260831221053 | 94 | 0 | 0.0 | 3.0 | 0.00 | 0.00 | 0.00 | 52 | 1019.6 |
| 20260831220554 | 94 | 0 | 0.0 | 3.0 | 0.00 | 0.00 | 0.00 | 53 | 1019.6 |
| 20260831220112 | 94 | 0 | 0.0 | 2.0 | 0.00 | 0.00 | 0.00 | 51 | 1019.6 |
| 20260831215555 | 93 | 49 | 0.0 | 2.0 | 0.00 | 0.00 | 0.00 | 52 | 1019.6 |
| 20260831215053 | 93 | 0 | 0.0 | 3.0 | 0.00 | 0.00 | 0.00 | 50 | 1019.7 |
| 20260831214611 | 93 | 0 | 1.0 | 4.0 | 0.00 | 0.00 | 0.00 | 48 | 1019.7 |
| 20260831214053 | 93 | 0 | 1.0 | 4.0 | 0.00 | 0.00 | 0.00 | 48 | 1019.7 |
| 20260831213553 | 93 | 0 | 0.0 | 4.0 | 0.00 | 0.00 | 0.00 | 49 | 1019.7 |
| 20260831213112 | 92 | 0 | 1.0 | 3.0 | 0.00 | 0.00 | 0.00 | 51 | 1019.9 |
| 20260831212553 | 92 | 0 | 0.0 | 6.0 | 0.00 | 0.00 | 0.00 | 50 | 1019.9 |
| 20260831212058 | 92 | 74 | 1.0 | 7.0 | 0.00 | 0.00 | 0.00 | 48 | 1019.9 |
| 20260831211605 | 91 | 97 | 2.0 | 7.0 | 0.00 | 0.00 | 0.00 | 49 | 1020.0 |
| 20260831211052 | 91 | 54 | 0.0 | 7.0 | 0.00 | 0.00 | 0.00 | 50 | 1020.0 |
| 20260831210553 | 91 | 57 | 1.0 | 7.0 | 0.00 | 0.00 | 0.00 | 50 | 1020.0 |
| 20260831210106 | 92 | 22 | 3.0 | 7.0 | 0.00 | 0.00 | 0.00 | 50 | 1020.0 |
| 20260831205553 | 92 | 0 | 1.0 | 6.0 | 0.00 | 0.00 | 0.00 | 49 | 1019.9 |
| 20260831205053 | 92 | 10 | 1.0 | 6.0 | 0.00 | 0.00 | 0.00 | 51 | 1020.0 |
| 20260831204605 | 91 | 0 | 0.0 | 4.0 | 0.00 | 0.00 | 0.00 | 50 | 1020.1 |
| 20260831204056 | 91 | 92 | 1.0 | 9.0 | 0.00 | 0.00 | 0.00 | 51 | 1020.1 |
| 20260831203556 | 92 | 90 | 0.0 | 9.0 | 0.00 | 0.00 | 0.00 | 50 | 1020.2 |
| 20260831203108 | 92 | 115 | 2.0 | 7.0 | 0.00 | 0.00 | 0.00 | 51 | 1020.2 |
| 20260831202553 | 91 | 9 | 1.0 | 6.0 | 0.00 | 0.00 | 0.00 | 52 | 1020.4 |
| 20260831202053 | 91 | 109 | 2.0 | 6.0 | 0.00 | 0.00 | 0.00 | 52 | 1020.4 |
| 20260831201605 | 91 | 360 | 3.0 | 5.0 | 0.00 | 0.00 | 0.00 | 52 | 1020.5 |
| 20260831201055 | 91 | 0 | 0.0 | 2.0 | 0.00 | 0.00 | 0.00 | 53 | 1020.5 |
| 20260831200553 | 91 | 255 | 1.0 | 3.0 | 0.00 | 0.00 | 0.00 | 53 | 1020.6 |
| 20260831200111 | 91 | 0 | 0.0 | 7.0 | 0.00 | 0.00 | 0.00 | 54 | 1020.7 |
| 20260831195557 | 91 | 107 | 2.0 | 7.0 | 0.00 | 0.00 | 0.00 | 52 | 1020.8 |
| 20260831195053 | 91 | 101 | 2.0 | 6.0 | 0.00 | 0.00 | 0.00 | 52 | 1020.8 |
| 20260831194614 | 90 | 81 | 3.0 | 6.0 | 0.00 | 0.00 | 0.00 | 53 | 1020.9 |
| 20260831194053 | 90 | 107 | 3.0 | 6.0 | 0.00 | 0.00 | 0.00 | 55 | 1020.9 |
| 20260831193554 | 90 | 37 | 0.0 | 2.0 | 0.00 | 0.00 | 0.00 | 55 | 1020.9 |
| 20260831193101 | 90 | 0 | 0.0 | 6.0 | 0.00 | 0.00 | 0.00 | 54 | 1021.0 |
| 20260831192553 | 91 | 0 | 0.0 | 7.0 | 0.00 | 0.00 | 0.00 | 55 | 1021.0 |
| 20260831192052 | 91 | 0 | 3.0 | 7.0 | 0.00 | 0.00 | 0.00 | 55 | 1021.1 |
| 20260831191605 | 91 | 107 | 1.0 | 6.0 | 0.00 | 0.00 | 0.00 | 56 | 1021.2 |
| 20260831191056 | 91 | 0 | 0.0 | 7.0 | 0.00 | 0.00 | 0.00 | 57 | 1021.1 |
| 20260831190555 | 91 | 0 | 1.0 | 7.0 | 0.00 | 0.00 | 0.00 | 56 | 1021.2 |
| 20260831190115 | 90 | 78 | 0.0 | 7.0 | 0.00 | 0.00 | 0.00 | 53 | 1021.3 |
| 20260831185553 | 90 | 5 | 2.0 | 4.0 | 0.00 | 0.00 | 0.00 | 54 | 1021.4 |
| 20260831185052 | 90 | 342 | 1.0 | 6.0 | 0.00 | 0.00 | 0.00 | 53 | 1021.3 |
| 20260831184605 | 90 | 115 | 1.0 | 6.0 | 0.00 | 0.00 | 0.00 | 56 | 1021.5 |
| 20260831184052 | 90 | 95 | 0.0 | 5.0 | 0.00 | 0.00 | 0.00 | 58 | 1021.5 |
| 20260831183552 | 90 | 32 | 0.0 | 4.0 | 0.00 | 0.00 | 0.00 | 58 | 1021.5 |
| 20260831183115 | 90 | 140 | 2.0 | 4.0 | 0.00 | 0.00 | 0.00 | 58 | 1021.6 |
| 20260831182554 | 90 | 0 | 1.0 | 5.0 | 0.00 | 0.00 | 0.00 | 58 | 1021.6 |
| 20260831182053 | 90 | 69 | 0.0 | 7.0 | 0.00 | 0.00 | 0.00 | 58 | 1021.6 |
| 20260831181611 | 90 | 9 | 1.0 | 7.0 | 0.00 | 0.00 | 0.00 | 58 | 1021.7 |
| 20260831181053 | 90 | 113 | 3.0 | 7.0 | 0.00 | 0.00 | 0.00 | 58 | 1021.8 |
| 20260831180553 | 89 | 64 | 1.0 | 7.0 | 0.00 | 0.00 | 0.00 | 57 | 1021.9 |
| 20260831180119 | 89 | 0 | 3.0 | 7.0 | 0.00 | 0.00 | 0.00 | 57 | 1022.0 |
| 20260831175553 | 89 | 90 | 0.0 | 3.0 | 0.00 | 0.00 | 0.00 | 59 | 1022.0 |
| 20260831175053 | 89 | 0 | 1.0 | 3.0 | 0.00 | 0.00 | 0.00 | 60 | 1022.0 |
| 20260831174605 | 89 | 98 | 0.0 | 6.0 | 0.00 | 0.00 | 0.00 | 59 | 1022.0 |
| 20260831174053 | 89 | 0 | 1.0 | 6.0 | 0.00 | 0.00 | 0.00 | 58 | 1022.0 |
| 20260831173553 | 89 | 84 | 0.0 | 4.0 | 0.00 | 0.00 | 0.00 | 60 | 1022.1 |
| 20260831173104 | 88 | 85 | 1.0 | 6.0 | 0.00 | 0.00 | 0.00 | 62 | 1022.2 |
| 20260831172553 | 88 | 19 | 0.0 | 6.0 | 0.00 | 0.00 | 0.00 | 64 | 1022.2 |
| 20260831172053 | 88 | 107 | 0.0 | 3.0 | 0.00 | 0.00 | 0.00 | 64 | 1022.2 |
| 20260831171604 | 88 | 312 | 0.0 | 3.0 | 0.00 | 0.00 | 0.00 | 65 | 1022.2 |
| 20260831171053 | 87 | 0 | 1.0 | 3.0 | 0.00 | 0.00 | 0.00 | 65 | 1022.2 |
| 20260831170553 | 87 | 0 | 0.0 | 5.0 | 0.00 | 0.00 | 0.00 | 67 | 1022.3 |
| 20260831165553 | 86 | 242 | 1.0 | 4.0 | 0.00 | 0.00 | 0.00 | 66 | 1022.4 |
| 20260831165053 | 86 | 344 | 1.0 | 4.0 | 0.00 | 0.00 | 0.00 | 67 | 1022.6 |
| 20260831164601 | 87 | 228 | 1.0 | 3.0 | 0.00 | 0.00 | 0.00 | 68 | 1022.7 |
| 20260831164052 | 87 | 0 | 0.0 | 3.0 | 0.00 | 0.00 | 0.00 | 68 | 1022.8 |
| 20260831163553 | 86 | 0 | 1.0 | 3.0 | 0.00 | 0.00 | 0.00 | 69 | 1022.7 |
| 20260831163105 | 86 | 294 | 0.0 | 3.0 | 0.00 | 0.00 | 0.00 | 70 | 1022.9 |
| 20260831162554 | 86 | 0 | 1.0 | 5.0 | 0.00 | 0.00 | 0.00 | 68 | 1022.9 |
| 20260831162055 | 86 | 0 | 2.0 | 5.0 | 0.00 | 0.00 | 0.00 | 70 | 1023.0 |
| 20260831161606 | 85 | 83 | 0.0 | 3.0 | 0.00 | 0.00 | 0.00 | 71 | 1023.0 |
| 20260831161053 | 85 | 0 | 0.0 | 2.0 | 0.00 | 0.00 | 0.00 | 72 | 1022.9 |
| 20260831160554 | 85 | 0 | 0.0 | 4.0 | 0.00 | 0.00 | 0.00 | 70 | 1023.0 |
| 20260831160108 | 85 | 0 | 1.0 | 4.0 | 0.00 | 0.00 | 0.00 | 72 | 1023.0 |
| 20260831155553 | 85 | 225 | 0.0 | 4.0 | 0.00 | 0.00 | 0.00 | 73 | 1023.0 |
| 20260831155055 | 85 | 213 | 1.0 | 4.0 | 0.00 | 0.00 | 0.00 | 72 | 1023.2 |
| 20260831154635 | 85 | 269 | 0.0 | 3.0 | 0.00 | 0.00 | 0.00 | 72 | 1023.1 |
| 20260831154055 | 85 | 271 | 0.0 | 4.0 | 0.00 | 0.00 | 0.00 | 72 | 1023.1 |
| 20260831153552 | 85 | 244 | 1.0 | 4.0 | 0.00 | 0.00 | 0.00 | 71 | 1023.2 |
| 20260831153110 | 85 | 219 | 0.0 | 3.0 | 0.00 | 0.00 | 0.00 | 71 | 1023.1 |
| 20260831152554 | 85 | 0 | 0.0 | 4.0 | 0.00 | 0.00 | 0.00 | 72 | 1023.1 |
| 20260831152053 | 85 | 0 | 0.0 | 4.0 | 0.00 | 0.00 | 0.00 | 72 | 1023.1 |
| 20260831151605 | 85 | 108 | 1.0 | 3.0 | 0.00 | 0.00 | 0.00 | 72 | 1023.1 |
| 20260831151053 | 84 | 0 | 0.0 | 3.0 | 0.00 | 0.00 | 0.00 | 74 | 1023.2 |
| 20260831150552 | 84 | 0 | 0.0 | 2.0 | 0.00 | 0.00 | 0.00 | 74 | 1023.2 |
| 20260831150113 | 83 | 0 | 0.0 | 5.0 | 0.00 | 0.00 | 0.00 | 75 | 1023.4 |
| 20260831145552 | 83 | 0 | 1.0 | 5.0 | 0.00 | 0.00 | 0.00 | 74 | 1023.3 |
| 20260831145056 | 83 | 0 | 0.0 | 2.0 | 0.00 | 0.00 | 0.00 | 76 | 1023.5 |
| 20260831144608 | 82 | 247 | 0.0 | 2.0 | 0.00 | 0.00 | 0.00 | 77 | 1023.5 |
| 20260831144053 | 82 | 0 | 0.0 | 2.0 | 0.00 | 0.00 | 0.00 | 76 | 1023.3 |
| 20260831143553 | 82 | 247 | 0.0 | 2.0 | 0.00 | 0.00 | 0.00 | 77 | 1023.4 |
| 20260831143108 | 82 | 0 | 0.0 | 2.0 | 0.00 | 0.00 | 0.00 | 76 | 1023.3 |
| 20260831142554 | 81 | 0 | 0.0 | 2.0 | 0.00 | 0.00 | 0.00 | 77 | 1023.2 |
| 20260831142055 | 81 | 0 | 0.0 | 2.0 | 0.00 | 0.00 | 0.00 | 78 | 1023.3 |
| 20260831141611 | 81 | 0 | 0.0 | 1.0 | 0.00 | 0.00 | 0.00 | 79 | 1023.2 |
| 20260831141055 | 80 | 0 | 0.0 | 1.0 | 0.00 | 0.00 | 0.00 | 80 | 1023.1 |
| 20260831140552 | 79 | 0 | 0.0 | 1.0 | 0.00 | 0.00 | 0.00 | 80 | 1023.1 |
| 20260831140101 | 79 | 0 | 0.0 | 2.0 | 0.00 | 0.00 | 0.00 | 81 | 1023.2 |
| 20260831135557 | 78 | 0 | 0.0 | 2.0 | 0.00 | 0.00 | 0.00 | 82 | 1023.1 |
| 20260831135053 | 78 | 293 | 0.0 | 2.0 | 0.00 | 0.00 | 0.00 | 82 | 1023.1 |
| 20260831134606 | 78 | 0 | 0.0 | 1.0 | 0.00 | 0.00 | 0.00 | 84 | 1023.1 |
| 20260831134053 | 77 | 0 | 0.0 | 1.0 | 0.00 | 0.00 | 0.00 | 83 | 1023.1 |
| 20260831133554 | 77 | 0 | 0.0 | 0.0 | 0.00 | 0.00 | 0.00 | 83 | 1023.1 |
| 20260831133108 | 76 | 0 | 0.0 | 0.0 | 0.00 | 0.00 | 0.00 | 84 | 1023.2 |
| 20260831132553 | 76 | 0 | 0.0 | 0.0 | 0.00 | 0.00 | 0.00 | 85 | 1023.2 |
| 20260831132053 | 76 | 0 | 0.0 | 0.0 | 0.00 | 0.00 | 0.00 | 86 | 1023.0 |
| 20260831131605 | 75 | 0 | 0.0 | 0.0 | 0.00 | 0.00 | 0.00 | 87 | 1023.0 |
| 20260831131052 | 75 | 0 | 0.0 | 0.0 | 0.00 | 0.00 | 0.00 | 88 | 1022.9 |
| 20260831130553 | 75 | 0 | 0.0 | 0.0 | 0.00 | 0.00 | 0.00 | 89 | 1023.0 |
| 20260831130104 | 74 | 0 | 0.0 | 0.0 | 0.00 | 0.00 | 0.00 | 90 | 1022.9 |
| 20260831125553 | 74 | 0 | 0.0 | 0.0 | 0.00 | 0.00 | 0.00 | 91 | 1022.8 |
| 20260831125052 | 73 | 0 | 0.0 | 0.0 | 0.00 | 0.00 | 0.00 | 91 | 1022.8 |
| 20260831124604 | 73 | 0 | 0.0 | 0.0 | 0.00 | 0.00 | 0.00 | 91 | 1022.8 |
| 20260831124052 | 73 | 0 | 0.0 | 1.0 | 0.00 | 0.00 | 0.00 | 91 | 1022.8 |
| 20260831123552 | 72 | 0 | 0.0 | 1.0 | 0.00 | 0.00 | 0.00 | 92 | 1022.8 |
| 20260831123104 | 72 | 0 | 0.0 | 0.0 | 0.00 | 0.00 | 0.00 | 91 | 1022.7 |
| 20260831122557 | 72 | 0 | 0.0 | 2.0 | 0.00 | 0.00 | 0.00 | 92 | 1022.7 |
| 20260831122052 | 72 | 0 | 0.0 | 3.0 | 0.00 | 0.00 | 0.00 | 92 | 1022.6 |
| 20260831121601 | 72 | 360 | 0.0 | 3.0 | 0.00 | 0.00 | 0.00 | 92 | 1022.6 |
| 20260831121057 | 71 | 360 | 0.0 | 2.0 | 0.00 | 0.00 | 0.00 | 92 | 1022.5 |
| 20260831120553 | 71 | 0 | 0.0 | 0.0 | 0.00 | 0.00 | 0.00 | 92 | 1022.5 |
| 20260831120129 | 71 | 0 | 0.0 | 0.0 | 0.00 | 0.00 | 0.00 | 92 | 1022.4 |
| 20260831115553 | 71 | 0 | 0.0 | 0.0 | 0.00 | 0.00 | 0.00 | 92 | 1022.5 |
| 20260831115056 | 71 | 0 | 0.0 | 0.0 | 0.00 | 0.00 | 0.00 | 92 | 1022.4 |
| 20260831114612 | 71 | 0 | 0.0 | 0.0 | 0.00 | 0.00 | 0.00 | 91 | 1022.5 |
| 20260831114053 | 71 | 0 | 0.0 | 0.0 | 0.00 | 0.00 | 0.00 | 91 | 1022.4 |
| 20260831113553 | 71 | 0 | 0.0 | 0.0 | 0.00 | 0.00 | 0.00 | 91 | 1022.3 |
| 20260831113107 | 71 | 0 | 0.0 | 0.0 | 0.00 | 0.00 | 0.00 | 92 | 1022.2 |
| 20260831112555 | 71 | 0 | 0.0 | 0.0 | 0.00 | 0.00 | 0.00 | 91 | 1022.2 |
| 20260831112052 | 71 | 0 | 0.0 | 0.0 | 0.00 | 0.00 | 0.00 | 91 | 1022.2 |
| 20260831111614 | 71 | 0 | 0.0 | 0.0 | 0.00 | 0.00 | 0.00 | 91 | 1022.2 |
| 20260831111052 | 71 | 0 | 0.0 | 0.0 | 0.00 | 0.00 | 0.00 | 91 | 1022.1 |
| 20260831110552 | 71 | 0 | 0.0 | 0.0 | 0.00 | 0.00 | 0.00 | 91 | 1022.0 |
| 20260831110104 | 71 | 0 | 0.0 | 0.0 | 0.00 | 0.00 | 0.00 | 91 | 1022.0 |
| 20260831105553 | 71 | 0 | 0.0 | 0.0 | 0.00 | 0.00 | 0.00 | 91 | 1021.8 |
| 20260831105053 | 71 | 0 | 0.0 | 0.0 | 0.00 | 0.00 | 0.00 | 91 | 1021.8 |
| 20260831104605 | 71 | 0 | 0.0 | 0.0 | 0.00 | 0.00 | 0.00 | 91 | 1021.7 |
| 20260831104053 | 71 | 0 | 0.0 | 0.0 | 0.00 | 0.00 | 0.00 | 91 | 1021.8 |
| 20260831103552 | 71 | 0 | 0.0 | 0.0 | 0.00 | 0.00 | 0.00 | 91 | 1021.6 |
| 20260831103107 | 71 | 0 | 0.0 | 0.0 | 0.00 | 0.00 | 0.00 | 91 | 1021.6 |
| 20260831102553 | 71 | 0 | 0.0 | 0.0 | 0.00 | 0.00 | 0.00 | 90 | 1021.7 |
| 20260831102053 | 72 | 0 | 0.0 | 0.0 | 0.00 | 0.00 | 0.00 | 91 | 1021.6 |
| 20260831101605 | 72 | 0 | 0.0 | 0.0 | 0.00 | 0.00 | 0.00 | 90 | 1021.6 |
| 20260831101053 | 72 | 0 | 0.0 | 0.0 | 0.00 | 0.00 | 0.00 | 90 | 1021.5 |
| 20260831100556 | 72 | 0 | 0.0 | 0.0 | 0.00 | 0.00 | 0.00 | 90 | 1021.4 |
| 20260831100114 | 72 | 0 | 0.0 | 0.0 | 0.00 | 0.00 | 0.00 | 90 | 1021.3 |
| 20260831095557 | 72 | 0 | 0.0 | 0.0 | 0.00 | 0.00 | 0.00 | 90 | 1021.4 |
| 20260831095053 | 72 | 0 | 0.0 | 0.0 | 0.00 | 0.00 | 0.00 | 90 | 1021.3 |
| 20260831094605 | 72 | 0 | 0.0 | 0.0 | 0.00 | 0.00 | 0.00 | 90 | 1021.4 |
| 20260831094054 | 72 | 0 | 0.0 | 0.0 | 0.00 | 0.00 | 0.00 | 90 | 1021.3 |
| 20260831093554 | 72 | 0 | 0.0 | 0.0 | 0.00 | 0.00 | 0.00 | 90 | 1021.1 |
| 20260831093106 | 72 | 0 | 0.0 | 0.0 | 0.00 | 0.00 | 0.00 | 90 | 1021.3 |
| 20260831092552 | 72 | 0 | 0.0 | 0.0 | 0.00 | 0.00 | 0.00 | 90 | 1021.1 |
| 20260831092053 | 72 | 0 | 0.0 | 0.0 | 0.00 | 0.00 | 0.00 | 90 | 1021.1 |
| 20260831091605 | 72 | 0 | 0.0 | 0.0 | 0.00 | 0.00 | 0.00 | 90 | 1021.0 |
| 20260831091052 | 72 | 0 | 0.0 | 0.0 | 0.00 | 0.00 | 0.00 | 90 | 1021.0 |
| 20260831090553 | 72 | 0 | 0.0 | 0.0 | 0.00 | 0.00 | 0.00 | 89 | 1020.9 |
| 20260831090109 | 72 | 0 | 0.0 | 0.0 | 0.00 | 0.00 | 0.00 | 89 | 1021.1 |
| 20260831085557 | 72 | 0 | 0.0 | 0.0 | 0.00 | 0.00 | 0.00 | 89 | 1021.0 |
| 20260831085052 | 73 | 0 | 0.0 | 0.0 | 0.00 | 0.00 | 0.00 | 89 | 1021.0 |
| 20260831084609 | 73 | 0 | 0.0 | 0.0 | 0.00 | 0.00 | 0.00 | 89 | 1020.8 |
| 20260831084052 | 73 | 0 | 0.0 | 0.0 | 0.00 | 0.00 | 0.00 | 89 | 1021.0 |
| 20260831083553 | 73 | 0 | 0.0 | 0.0 | 0.00 | 0.00 | 0.00 | 89 | 1021.0 |
| 20260831083106 | 73 | 0 | 0.0 | 0.0 | 0.00 | 0.00 | 0.00 | 89 | 1021.0 |
| 20260831082556 | 73 | 0 | 0.0 | 0.0 | 0.00 | 0.00 | 0.00 | 89 | 1020.9 |
| 20260831082053 | 73 | 0 | 0.0 | 0.0 | 0.00 | 0.00 | 0.00 | 89 | 1021.0 |
| 20260831081605 | 73 | 0 | 0.0 | 0.0 | 0.00 | 0.00 | 0.00 | 88 | 1020.9 |
| 20260831081052 | 73 | 0 | 0.0 | 0.0 | 0.00 | 0.00 | 0.00 | 88 | 1021.0 |
| 20260831080552 | 73 | 0 | 0.0 | 0.0 | 0.00 | 0.00 | 0.00 | 88 | 1021.0 |
| 20260831080138 | 73 | 0 | 0.0 | 0.0 | 0.00 | 0.00 | 0.00 | 87 | 1021.0 |
| 20260831075552 | 73 | 0 | 0.0 | 0.0 | 0.00 | 0.00 | 0.00 | 88 | 1021.0 |
| 20260831075055 | 74 | 0 | 0.0 | 0.0 | 0.00 | 0.00 | 0.00 | 88 | 1020.9 |
| 20260831074607 | 74 | 0 | 0.0 | 0.0 | 0.00 | 0.00 | 0.00 | 87 | 1020.9 |
| 20260831074053 | 74 | 0 | 0.0 | 0.0 | 0.00 | 0.00 | 0.00 | 87 | 1020.8 |
| 20260831073555 | 74 | 0 | 0.0 | 0.0 | 0.00 | 0.00 | 0.00 | 87 | 1020.9 |
| 20260831073117 | 74 | 0 | 0.0 | 0.0 | 0.00 | 0.00 | 0.00 | 87 | 1020.9 |
| 20260831072552 | 74 | 0 | 0.0 | 0.0 | 0.00 | 0.00 | 0.00 | 87 | 1020.9 |
| 20260831072053 | 74 | 0 | 0.0 | 0.0 | 0.00 | 0.00 | 0.00 | 87 | 1020.9 |
| 20260831071602 | 74 | 0 | 0.0 | 0.0 | 0.00 | 0.00 | 0.00 | 87 | 1020.8 |
| 20260831071053 | 74 | 0 | 0.0 | 0.0 | 0.00 | 0.00 | 0.00 | 86 | 1021.0 |
| 20260831070552 | 74 | 0 | 0.0 | 0.0 | 0.00 | 0.00 | 0.00 | 87 | 1020.9 |
| 20260831065550 | 75 | 0 | 0.0 | 0.0 | 0.00 | 0.00 | 0.00 | 86 | 1021.0 |
| 20260831065052 | 75 | 0 | 0.0 | 0.0 | 0.00 | 0.00 | 0.00 | 86 | 1021.0 |
| 20260831064611 | 75 | 0 | 0.0 | 0.0 | 0.00 | 0.00 | 0.00 | 86 | 1021.1 |
| 20260831064052 | 75 | 0 | 0.0 | 0.0 | 0.00 | 0.00 | 0.00 | 85 | 1021.0 |
| 20260831063555 | 75 | 0 | 0.0 | 0.0 | 0.00 | 0.00 | 0.00 | 85 | 1021.0 |
| 20260831063107 | 75 | 0 | 0.0 | 0.0 | 0.00 | 0.00 | 0.00 | 85 | 1021.1 |
| 20260831062553 | 75 | 0 | 0.0 | 0.0 | 0.00 | 0.00 | 0.00 | 85 | 1021.0 |
| 20260831062053 | 75 | 0 | 0.0 | 0.0 | 0.00 | 0.00 | 0.00 | 85 | 1021.0 |
| 20260831061608 | 75 | 0 | 0.0 | 0.0 | 0.00 | 0.00 | 0.00 | 85 | 1021.0 |
| 20260831061054 | 75 | 0 | 0.0 | 0.0 | 0.00 | 0.00 | 0.00 | 85 | 1021.1 |
| 20260831060552 | 76 | 0 | 0.0 | 0.0 | 0.00 | 0.00 | 0.00 | 85 | 1021.0 |
| 20260831060109 | 76 | 0 | 0.0 | 0.0 | 0.00 | 0.00 | 0.00 | 85 | 1021.0 |
| 20260831055552 | 76 | 0 | 0.0 | 0.0 | 0.00 | 0.00 | 0.00 | 85 | 1021.0 |
| 20260831055053 | 76 | 0 | 0.0 | 0.0 | 0.00 | 0.00 | 0.00 | 85 | 1021.1 |
| 20260831054601 | 76 | 0 | 0.0 | 0.0 | 0.00 | 0.00 | 0.00 | 84 | 1021.0 |
| 20260831054052 | 76 | 0 | 0.0 | 0.0 | 0.00 | 0.00 | 0.00 | 84 | 1021.0 |
| 20260831053552 | 76 | 0 | 0.0 | 0.0 | 0.00 | 0.00 | 0.00 | 84 | 1021.1 |
| 20260831053110 | 76 | 0 | 0.0 | 0.0 | 0.00 | 0.00 | 0.00 | 84 | 1021.0 |
| 20260831052552 | 77 | 0 | 0.0 | 0.0 | 0.00 | 0.00 | 0.00 | 84 | 1021.0 |
| 20260831052054 | 77 | 0 | 0.0 | 0.0 | 0.00 | 0.00 | 0.00 | 84 | 1021.1 |
| 20260831051604 | 77 | 0 | 0.0 | 0.0 | 0.00 | 0.00 | 0.00 | 84 | 1021.1 |
| 20260831051052 | 77 | 0 | 0.0 | 0.0 | 0.00 | 0.00 | 0.00 | 84 | 1021.1 |
| 20260831050556 | 77 | 0 | 0.0 | 0.0 | 0.00 | 0.00 | 0.00 | 83 | 1021.0 |
| 20260831050117 | 77 | 0 | 0.0 | 0.0 | 0.00 | 0.00 | 0.00 | 83 | 1021.0 |
| 20260831045555 | 77 | 0 | 0.0 | 2.0 | 0.00 | 0.00 | 0.00 | 83 | 1021.0 |
| 20260831045052 | 77 | 0 | 0.0 | 2.0 | 0.00 | 0.00 | 0.00 | 83 | 1021.0 |
| 20260831044606 | 77 | 360 | 0.0 | 2.0 | 0.00 | 0.00 | 0.00 | 83 | 1021.0 |
| 20260831044052 | 77 | 0 | 0.0 | 0.0 | 0.00 | 0.00 | 0.00 | 82 | 1021.0 |
| 20260831043553 | 77 | 0 | 0.0 | 0.0 | 0.00 | 0.00 | 0.00 | 82 | 1021.2 |
| 20260831043106 | 78 | 0 | 0.0 | 0.0 | 0.00 | 0.00 | 0.00 | 81 | 1021.0 |
| 20260831042552 | 78 | 0 | 0.0 | 0.0 | 0.00 | 0.00 | 0.00 | 81 | 1021.0 |
| 20260831042052 | 78 | 0 | 0.0 | 0.0 | 0.00 | 0.00 | 0.00 | 81 | 1021.0 |
| 20260831041611 | 78 | 0 | 0.0 | 0.0 | 0.00 | 0.00 | 0.00 | 81 | 1021.1 |
| 20260831041054 | 78 | 0 | 0.0 | 0.0 | 0.00 | 0.00 | 0.00 | 81 | 1021.1 |
| 20260831040552 | 78 | 0 | 0.0 | 0.0 | 0.00 | 0.00 | 0.00 | 81 | 1021.0 |
| 20260831040110 | 78 | 0 | 0.0 | 1.0 | 0.00 | 0.00 | 0.00 | 80 | 1021.0 |
| 20260831035555 | 78 | 0 | 0.0 | 1.0 | 0.00 | 0.00 | 0.00 | 80 | 1021.0 |
| 20260831035051 | 78 | 0 | 0.0 | 0.0 | 0.00 | 0.00 | 0.00 | 80 | 1021.1 |
| 20260831034609 | 78 | 0 | 0.0 | 0.0 | 0.00 | 0.00 | 0.00 | 80 | 1021.0 |
| 20260831034052 | 78 | 0 | 0.0 | 0.0 | 0.00 | 0.00 | 0.00 | 80 | 1021.1 |
| 20260831033554 | 78 | 0 | 0.0 | 1.0 | 0.00 | 0.00 | 0.00 | 80 | 1021.1 |
| 20260831033111 | 79 | 0 | 0.0 | 1.0 | 0.00 | 0.00 | 0.00 | 79 | 1021.0 |
| 20260831032552 | 79 | 0 | 0.0 | 0.0 | 0.00 | 0.00 | 0.00 | 79 | 1021.1 |
| 20260831032052 | 79 | 0 | 0.0 | 0.0 | 0.00 | 0.00 | 0.00 | 79 | 1021.0 |
| 20260831031605 | 79 | 0 | 0.0 | 0.0 | 0.00 | 0.00 | 0.00 | 78 | 1020.9 |
| 20260831031051 | 79 | 0 | 0.0 | 0.0 | 0.00 | 0.00 | 0.00 | 78 | 1021.1 |
| 20260831030553 | 79 | 0 | 0.0 | 0.0 | 0.00 | 0.00 | 0.00 | 78 | 1021.2 |
| 20260831030103 | 79 | 0 | 0.0 | 0.0 | 0.00 | 0.00 | 0.00 | 78 | 1021.2 |
| 20260831025549 | 79 | 0 | 0.0 | 0.0 | 0.00 | 0.00 | 0.00 | 77 | 1021.1 |
| 20260831025053 | 80 | 0 | 0.0 | 0.0 | 0.00 | 0.00 | 0.00 | 77 | 1021.2 |
| 20260831024609 | 80 | 0 | 0.0 | 0.0 | 0.00 | 0.00 | 0.00 | 76 | 1021.2 |
| 20260831024051 | 80 | 0 | 0.0 | 0.0 | 0.00 | 0.00 | 0.00 | 76 | 1021.0 |
| 20260831023552 | 80 | 0 | 0.0 | 0.0 | 0.00 | 0.00 | 0.00 | 76 | 1021.0 |
| 20260831023108 | 80 | 0 | 0.0 | 1.0 | 0.00 | 0.00 | 0.00 | 75 | 1021.0 |
| 20260831022555 | 80 | 0 | 0.0 | 1.0 | 0.00 | 0.00 | 0.00 | 75 | 1021.2 |
| 20260831022055 | 81 | 0 | 0.0 | 1.0 | 0.00 | 0.00 | 0.00 | 75 | 1021.0 |
| 20260831021606 | 81 | 0 | 0.0 | 1.0 | 0.00 | 0.00 | 0.00 | 75 | 1020.9 |
| 20260831021056 | 81 | 0 | 0.0 | 1.0 | 0.00 | 0.00 | 0.00 | 75 | 1020.9 |
| 20260831020553 | 81 | 0 | 0.0 | 1.0 | 0.00 | 0.00 | 0.00 | 75 | 1020.9 |
| 20260831020108 | 81 | 0 | 0.0 | 0.0 | 0.00 | 0.00 | 0.00 | 74 | 1020.8 |
| 20260831015552 | 81 | 0 | 0.0 | 0.0 | 0.00 | 0.00 | 0.00 | 75 | 1020.7 |
| 20260831015052 | 81 | 0 | 0.0 | 0.0 | 0.00 | 0.00 | 0.00 | 74 | 1020.7 |
| 20260831014603 | 82 | 0 | 0.0 | 0.0 | 0.00 | 0.00 | 0.00 | 73 | 1020.6 |
| 20260831014052 | 82 | 0 | 0.0 | 1.0 | 0.00 | 0.00 | 0.00 | 73 | 1020.5 |
| 20260831013553 | 82 | 0 | 0.0 | 1.0 | 0.00 | 0.00 | 0.00 | 73 | 1020.5 |
| 20260831013115 | 82 | 0 | 0.0 | 2.0 | 0.00 | 0.00 | 0.00 | 72 | 1020.4 |
| 20260831012551 | 82 | 0 | 0.0 | 2.0 | 0.00 | 0.00 | 0.00 | 72 | 1020.3 |
| 20260831012057 | 83 | 360 | 0.0 | 1.0 | 0.00 | 0.00 | 0.00 | 71 | 1020.2 |
| 20260831011605 | 83 | 0 | 0.0 | 0.0 | 0.00 | 0.00 | 0.00 | 71 | 1020.2 |
| 20260831011052 | 83 | 0 | 0.0 | 0.0 | 0.00 | 0.00 | 0.00 | 71 | 1020.1 |
| 20260831010552 | 83 | 0 | 0.0 | 0.0 | 0.00 | 0.00 | 0.00 | 71 | 1020.2 |
| 20260831010128 | 83 | 0 | 0.0 | 0.0 | 0.00 | 0.00 | 0.00 | 70 | 1020.2 |
| 20260831005552 | 84 | 0 | 0.0 | 0.0 | 0.00 | 0.00 | 0.00 | 70 | 1020.0 |
| 20260831005049 | 84 | 0 | 0.0 | 0.0 | 0.00 | 0.00 | 0.00 | 70 | 1020.1 |
| 20260831004611 | 84 | 0 | 0.0 | 2.0 | 0.00 | 0.00 | 0.00 | 69 | 1020.1 |
| 20260831004058 | 84 | 0 | 0.0 | 2.0 | 0.00 | 0.00 | 0.00 | 69 | 1020.1 |
| 20260831003551 | 85 | 0 | 0.0 | 2.0 | 0.00 | 0.00 | 0.00 | 69 | 1020.0 |
| 20260831003108 | 85 | 0 | 0.0 | 1.0 | 0.00 | 0.00 | 0.00 | 68 | 1019.9 |
| 20260831002549 | 85 | 0 | 0.0 | 0.0 | 0.00 | 0.00 | 0.00 | 68 | 1020.0 |
| 20260831002051 | 85 | 0 | 0.0 | 0.0 | 0.00 | 0.00 | 0.00 | 68 | 1019.8 |
| 20260831001602 | 86 | 0 | 0.0 | 0.0 | 0.00 | 0.00 | 0.00 | 67 | 1019.9 |
| 20260831001049 | 86 | 0 | 0.0 | 1.0 | 0.00 | 0.00 | 0.00 | 67 | 1019.8 |
| 20260831000549 | 86 | 0 | 0.0 | 1.0 | 0.00 | 0.00 | 0.00 | 66 | 1019.8 |
| 20260831000108 | 86 | 0 | 0.0 | 4.0 | 0.00 | 0.00 | 0.00 | 66 | 1019.9 |
| 20260830235552 | 87 | 0 | 0.0 | 4.0 | 0.00 | 0.00 | 0.00 | 65 | 1019.9 |
| 20260830235052 | 87 | 360 | 1.0 | 4.0 | 0.00 | 0.00 | 0.00 | 65 | 1019.8 |
| 20260830234608 | 87 | 0 | 1.0 | 4.0 | 0.00 | 0.00 | 0.00 | 65 | 1019.9 |
| 20260830234051 | 88 | 0 | 1.0 | 4.0 | 0.00 | 0.00 | 0.00 | 64 | 1019.9 |
| 20260830233552 | 88 | 0 | 1.0 | 4.0 | 0.00 | 0.00 | 0.00 | 64 | 1019.9 |
| 20260830233106 | 88 | 360 | 1.0 | 4.0 | 0.00 | 0.00 | 0.00 | 63 | 1019.8 |
| 20260830232551 | 88 | 360 | 1.0 | 4.0 | 0.00 | 0.00 | 0.00 | 63 | 1019.8 |